Погода Гусь-Хрустальный

Погода Гусь-Хрустальный : погода сейчас, прогноз погоды и архив. Всё, что Вы хотите узнать о погоде Гусь-Хрустальный!

Хотите узнать прогноз погоды Гусь-Хрустальный? Тогда Вам сюда: Погода Гусь-Хрустальный

Поиск расширенной информации на нашем сайте:

Другие новости

Новости СМИ2

Главная страница сайта

Новости сайта

02.10.2013

Напоминаем, что на нашем новом сайте вы можете получить высокодетализированные прогнозы погоды по пунктам России, СНГ и мира (включающие важные для авиации метеовеличины, такие как направление и скорость ветра, видимость, явления погоды, количество и форма облачности, нижняя и верхняя граница облачности), а также ознакомиться с разнообразными материалами по авиационной метеорологии и подборкой полезных ссылок на эту тему.

Сайт Метеоцентр.Азия посвящён разработке технологий оптимизации авиаметеорологического обслуживания, включая проектирование и перспективное создание нескольких автоматизированных авиаметеорологических систем:
- система выпуска высокодетальных прогностических карт явлений погоды для нижнего воздушного пространства по России и ближнему зарубежью;
- система верификации прогнозов TAF (выпускаемых синоптиками официальных АМСГ РФ и ближнего зарубежья) и AUTOTAF (выпускаемых сайтом Метеоцентр.Азия) - выявление ошибок, онлайн-сопоставление с фактической погодой METAR, автоматическое внесение коррективов в прогнозы при резком отклонении фактической погоды от прогноза, подсчёт оправдываемости прогнозов по элементам и в целом;
- система обработки, анализа и отображения авиаметеорологической информации для применения провайдерами метеорологической информации.

Рекомендуем: Скорый ремонт компьютеров в раменском длится не больше 2 часов.

Погода Гусь-Хрустальный - сегодня

Время (UTC), дата Ветер
(°,м/с) 
Видим.   Явления Облачность Т
(°С)
Тd
(°С)
f(%) Тe
(°С)
Pmin
(гПа)
dP
(гПа)
Po
(мм)
O2
(г/м3)
Тmin Tmax R s Состояние
почвы
09 26.04.17 180 (Ю) 5-11  20000 м    8/0 верхняя 
[Cs]
+15.2 +0.5 37 +15  1016.6  -1.5  750  286           
12 26.04.17 180 (Ю) 20000 м    9/9 300 м кучево-дожд. 
[Cb cap]
+15.4 -1.3 32 +15  1015  -1.6  749  286           
15 26.04.17 180 (Ю) 4-10{13}  20000 м    8/8 300 м верхняя 
[Sc|Cs]
+17.4 -0.2 30 +18  1011.9  747  283           
18 26.04.17 190 (Ю) 4-11{12}  20000 м    9/9 300 м кучево-дожд. 
[Cb cap]
+16.1 -1.4 30 +16  1012.2  747  284           
21 26.04.17 210 (ЮЗ) 5{15}  20000 м    9/9 300 м кучево-дожд. 
[Cb cap]
+15.1 +0.4 37 +15  1013.2  748  285           
00 27.04.17 200 (Ю) 4{11}  20000 м    9/9 300 м кучево-дожд. 
[Cb cap]
+13.3 -0.2 39 +13  1013.3  0.1  748  287           
03 27.04.17 200 (Ю) 3{12}  20000 м    9/9 300 м 
[Sc]
+10.7 +3.2 60 +10  1014.6  1.2  749  290  +10.7        влажная 
06 27.04.17 200 (Ю) 10 км  {ливн. осадки}  9/9 300 м кучево-дожд. 
[Cb cap]
+9.6 +5.3 75 +9  1015.7  749  291  +8.9         
09 27.04.17 180 (Ю) 10 км  слаб. ливневой дождь  9/9 300 м кучево-дожд. 
[Cb cap]
+9.5 +6.4 81 +10  1017.1  1.3  750  291           
12 27.04.17 190 (Ю) 2{11}  4000 м  слаб. ливневой дождь  9/9 300 м кучево-дожд. 
[Cb cap]
+11.1 +5.4 68 +11  1015.8  -1.2  750  289           
15 27.04.17 150 (ЮВ) 10 км  {ливн. осадки}  9/9 300 м кучево-дожд. 
[Cb cap]
+14.9 +5.2 52 +16  1013.2  -2.3  748  285    +15.2     
18 27.04.17 340 (С) 20000 м  {ливн. осадки}  9/9 300 м кучево-дожд. 
[Cb cap]
+11.2 +6.3 72 +11  1014.5  1.1  749  289           
21 27.04.17 020 (С) 20000 м    8/6 300 м верхняя 
[Sc|Cs]
+7.9 +5.6 85 +9  1016.5  1.1  750  293           
00 28.04.17 360 (С) 20000 м    8/6 300 м верхняя 
[Sc|Cs]
+6.8 +5.5 91 +7  1017.3  0.7  750  294           
03 28.04.17 030 (СВ) 20000 м    10/10 300 м кучево-дожд. 
[Cb cap]
+5.8 +4.4 91 +6  1018.6  1.2  751  296  +5.8        влажная 
06 28.04.17 360 (С) 10 км  {ливн. осадки}  10/10 300 м кучево-дожд. 
[Cb cap]
+5.6 +4.5 93 +5  1020.6  1.9  753  297  +5.5         
09 28.04.17 050 (СВ) 10 км  слаб. ливневой дождь  10/10 300 м кучево-дожд. 
[Cb cap]
+5.5 +4 90 +5  1022.4  1.8  754  297           
12 28.04.17 020 (С) 10 км  слаб. ливневой дождь  10/10 300 м кучево-дожд. 
[Cb cap]
+6 +4.6 91 +6  1023  1.8  755  297           
15 28.04.17 060 (СВ) 10 км  слаб. ливневой дождь  10/10 300 м кучево-дожд. 
[Cb cap]
+6.1 +4.9 92 +6  1022.7  -0.4  754  297    +6.1     
18 28.04.17 070 (В) 20000 м  {ливн. осадки}  10/10 300 м кучево-дожд. 
[Cb cap]
+5.8 +4.6 92 +5  1023.6  0.9  755  297           
21 28.04.17 080 (В) 10 км    10/10 300 м кучево-дожд. 
[Cb cap]
+5.4 +4.3 93 +5  1022.7  -0.9  754  297           
00 29.04.17 090 (В) 10 км    10/10 300 м кучево-дожд. 
[Cb cap]
+4.2 +3.4 95 +5  1021.7  -1  754  299           
03 29.04.17 090 (В) 4000 м  дымка  9/8 300 м средняя 
[Sc|Ac und]
+4.3 +3.7 96 +4  1021.6  0.1  754  298  +3.7    0.0    влажная 
06 29.04.17 140 (ЮВ) 20000 м    4/0 верхняя 
[Cs]
+14.3 +6.5 59 +15  1020.9  0.1  753  287           
09 29.04.17 160 (Ю) 20000 м    3/0 верхняя 
[Cs]
+22.1 +2.9 28 +22  1019.7  -0.7  753  280           
Время (UTC), дата Ветер
(°,м/с) 
Видим.   Явления Облачность Т
(°С)
Тd
(°С)
f(%) Тe
(°С)
Pmin
(гПа)
dP
(гПа)
Po
(мм)
O2
(г/м3)
Тmin Tmax R s Состояние
почвы

Для получения пояснительной информации подведите курсор к названию столбца.

ПОГОДА Гусь-Хрустальный - архив

Всё, что Вы хотите узнать о погоде Гусь-Хрустальный - удобно и подробно!

Выберите нужную дату (начиная с 1 января 2015* года) и нажмите кнопку "Найти".
Будут отображены архивные сводки погоды по пункту Гусь-Хрустальный, начиная с указанной даты.


Отображать данные в формате CSV (для использования в таблицах Excel)


Внимание! Наш архив погоды предназначен исключительно для личного некоммерческого использования в познавательных целях. Если Вам необходимы официальные справки о состоянии погоды (для производственных, юридических, коммерческих и т.п. целей), обращайтесь в органы Росгидромета.

*Примечание: данная дата относится к архиву по метеостанциям СССР (Россия, СНГ, Балтия).
Архив по метеостанциям Зарубежной Европы и Азии (кроме Китая) хранится 10 дней, по другим регионам земного шара (Китай, Африка, Америка, Австралия, Океания) - 1 день.

Гусь-Хрустальный - район местоположения метеостанции


Название, широта, долгота, высота метеостанции:
Гусь-Хрустальный 55.6°ш. 40.6°д. 136 м над ур. моря [Российская Федерация]

Дополнительная информация

В oтличие oт бoльшинства пoгoдных сайтoв мы публикуем пoдрoбную метеoинфoрмацию в детальнoм прoфессиoнальнoм фoрмате.

Характеристики температуры и влажнoсти вoздуха измеряются на высoте 2 м в тени вдали oт зданий и деревьев.
Скoрoсть ветра измеряется на высoте 10 м (на урoвне рoста челoвека скoрoсть ветра ниже в 1.5-2 раза). Если метеoстанция нахoдится в гoрoде или в лесу, тo скoрoсть ветра занижена на 2-4 м/с пo сравнению с oткрытым местoм. Скoрoсть ветра над акватoриями крупных рек и oзёр, а также на вершинах хoлмoв на 2-5 м/с выше, чем в oбычных услoвиях.
Атмoсфернoе давление в разных тoчках местнoсти мoжет значительнo oтличаться oт давления на метеoстанции, в зависимoсти oт услoвий рельефа (при пoдъёме на 10 м давление пoнижается примернo на 1 мм рт.ст.).